Year,Month,Day,Hour,Minute,Value (Times are PST for temperature in C)
2019,04,01,00,00,4.90
2019,04,01,00,01,4.80
2019,04,01,00,02,4.70
2019,04,01,00,03,4.70
2019,04,01,00,04,4.70
2019,04,01,00,05,4.60
2019,04,01,00,06,4.60
2019,04,01,00,07,4.60
2019,04,01,00,08,4.60
2019,04,01,00,09,4.60
2019,04,01,00,10,4.50
2019,04,01,00,11,4.50
2019,04,01,00,12,4.50
2019,04,01,00,13,4.50
2019,04,01,00,14,4.50
2019,04,01,00,15,4.40
2019,04,01,00,16,4.40
2019,04,01,00,17,4.40
2019,04,01,00,18,4.40
2019,04,01,00,19,4.40
2019,04,01,00,20,4.30
2019,04,01,00,21,4.30
2019,04,01,00,22,4.30
2019,04,01,00,23,4.30
2019,04,01,00,24,4.30
2019,04,01,00,25,4.20
2019,04,01,00,26,4.20
2019,04,01,00,27,4.20
2019,04,01,00,28,4.20
2019,04,01,00,29,4.10
2019,04,01,00,30,4.10
2019,04,01,00,31,4.10
2019,04,01,00,32,4.10
2019,04,01,00,33,4.10
2019,04,01,00,34,4.00
2019,04,01,00,35,4.00
2019,04,01,00,36,4.00
2019,04,01,00,37,4.00
2019,04,01,00,38,4.00
2019,04,01,00,39,4.00
2019,04,01,00,40,3.90
2019,04,01,00,41,3.90
2019,04,01,00,42,3.90
2019,04,01,00,43,3.90
2019,04,01,00,44,3.90
2019,04,01,00,45,3.90
2019,04,01,00,46,3.80
2019,04,01,00,47,3.80
2019,04,01,00,48,3.80
2019,04,01,00,49,3.80
2019,04,01,00,50,3.80
2019,04,01,00,51,3.80
2019,04,01,00,52,3.80
2019,04,01,00,53,3.80
2019,04,01,00,54,3.80
2019,04,01,00,55,3.90
2019,04,01,00,56,3.80
2019,04,01,00,57,3.80
2019,04,01,00,58,3.80
2019,04,01,00,59,3.80
2019,04,01,01,00,3.80
2019,04,01,01,01,3.80
2019,04,01,01,02,3.80
2019,04,01,01,03,3.80
2019,04,01,01,04,3.80
2019,04,01,01,05,3.80
2019,04,01,01,06,3.80
2019,04,01,01,07,3.80
2019,04,01,01,08,3.70
2019,04,01,01,09,3.70
2019,04,01,01,10,3.70
2019,04,01,01,11,3.70
2019,04,01,01,12,3.70
2019,04,01,01,13,3.60
2019,04,01,01,14,3.60
2019,04,01,01,15,3.60
2019,04,01,01,16,3.60
2019,04,01,01,17,3.60
2019,04,01,01,18,3.60
2019,04,01,01,19,3.60
2019,04,01,01,20,3.60
2019,04,01,01,21,3.50
2019,04,01,01,22,3.50
2019,04,01,01,23,3.50
2019,04,01,01,24,3.50
2019,04,01,01,25,3.50
2019,04,01,01,26,3.50
2019,04,01,01,27,3.50
2019,04,01,01,28,3.50
2019,04,01,01,29,3.50
2019,04,01,01,30,3.50
2019,04,01,01,31,3.50
2019,04,01,01,32,3.60
2019,04,01,01,33,3.60
2019,04,01,01,34,3.60
2019,04,01,01,35,3.60
2019,04,01,01,36,3.60
2019,04,01,01,37,3.60
2019,04,01,01,38,3.60
2019,04,01,01,39,3.60
2019,04,01,01,40,3.50
2019,04,01,01,41,3.50
2019,04,01,01,42,3.50
2019,04,01,01,43,3.50
2019,04,01,01,44,3.40
2019,04,01,01,45,3.40
2019,04,01,01,46,3.40
2019,04,01,01,47,3.40
2019,04,01,01,48,3.40
2019,04,01,01,49,3.40
2019,04,01,01,50,3.40
2019,04,01,01,51,3.40
2019,04,01,01,52,3.30
2019,04,01,01,53,3.30
2019,04,01,01,54,3.30
2019,04,01,01,55,3.30
2019,04,01,01,56,3.30
2019,04,01,01,57,3.30
2019,04,01,01,58,3.30
2019,04,01,01,59,3.30
2019,04,01,02,00,3.30
2019,04,01,02,01,3.30
2019,04,01,02,02,3.20
2019,04,01,02,03,3.20
2019,04,01,02,04,3.20
2019,04,01,02,05,3.20
2019,04,01,02,06,3.20
2019,04,01,02,07,3.20
2019,04,01,02,08,3.20
2019,04,01,02,09,3.20
2019,04,01,02,10,3.20
2019,04,01,02,11,3.20
2019,04,01,02,12,3.20
2019,04,01,02,13,3.20
2019,04,01,02,14,3.20
2019,04,01,02,15,3.20
2019,04,01,02,16,3.20
2019,04,01,02,17,3.20
2019,04,01,02,18,3.20
2019,04,01,02,19,3.20
2019,04,01,02,20,3.20
2019,04,01,02,21,3.20
2019,04,01,02,22,3.20
2019,04,01,02,23,3.20
2019,04,01,02,24,3.20
2019,04,01,02,25,3.20
2019,04,01,02,26,3.20
2019,04,01,02,27,3.20
2019,04,01,02,28,3.20
2019,04,01,02,29,3.20
2019,04,01,02,30,3.20
2019,04,01,02,31,3.20
2019,04,01,02,32,3.20
2019,04,01,02,33,3.20
2019,04,01,02,34,3.20
2019,04,01,02,35,3.20
2019,04,01,02,36,3.20
2019,04,01,02,37,3.20
2019,04,01,02,38,3.20
2019,04,01,02,39,3.20
2019,04,01,02,40,3.10
2019,04,01,02,41,3.10
2019,04,01,02,42,3.10
2019,04,01,02,43,3.10
2019,04,01,02,44,3.10
2019,04,01,02,45,3.10
2019,04,01,02,46,3.10
2019,04,01,02,47,3.10
2019,04,01,02,48,3.10
2019,04,01,02,49,3.10
2019,04,01,02,50,3.10
2019,04,01,02,51,3.10
2019,04,01,02,52,3.00
2019,04,01,02,53,3.00
2019,04,01,02,54,3.00
2019,04,01,02,55,3.00
2019,04,01,02,56,3.00
2019,04,01,02,57,3.00
2019,04,01,02,58,3.00
2019,04,01,02,59,3.00
2019,04,01,03,00,2.90
2019,04,01,03,01,2.90
2019,04,01,03,02,2.90
2019,04,01,03,03,2.80
2019,04,01,03,04,2.80
2019,04,01,03,05,2.80
2019,04,01,03,06,2.80
2019,04,01,03,07,2.80
2019,04,01,03,08,2.80
2019,04,01,03,09,2.80
2019,04,01,03,10,2.80
2019,04,01,03,11,2.80
2019,04,01,03,12,2.80
2019,04,01,03,13,2.80
2019,04,01,03,14,2.80
2019,04,01,03,15,2.80
2019,04,01,03,16,2.80
2019,04,01,03,17,2.80
2019,04,01,03,18,2.80
2019,04,01,03,19,2.80
2019,04,01,03,20,2.70
2019,04,01,03,21,2.70
2019,04,01,03,22,2.70
2019,04,01,03,23,2.70
2019,04,01,03,24,2.70
2019,04,01,03,25,2.70
2019,04,01,03,26,2.70
2019,04,01,03,27,2.80
2019,04,01,03,28,2.80
2019,04,01,03,29,2.90
2019,04,01,03,30,2.90
2019,04,01,03,31,2.90
2019,04,01,03,32,2.90
2019,04,01,03,33,2.90
2019,04,01,03,34,2.90
2019,04,01,03,35,2.90
2019,04,01,03,36,2.90
2019,04,01,03,37,2.90
2019,04,01,03,38,2.90
2019,04,01,03,39,2.80
2019,04,01,03,40,2.80
2019,04,01,03,41,2.80
2019,04,01,03,42,2.80
2019,04,01,03,43,2.80
2019,04,01,03,44,2.80
2019,04,01,03,45,2.80
2019,04,01,03,46,2.80
2019,04,01,03,47,2.80
2019,04,01,03,48,2.80
2019,04,01,03,49,2.80
2019,04,01,03,50,2.80
2019,04,01,03,51,2.80
2019,04,01,03,52,2.80
2019,04,01,03,53,2.80
2019,04,01,03,54,2.80
2019,04,01,03,55,2.80
2019,04,01,03,56,2.80
2019,04,01,03,57,2.80
2019,04,01,03,58,2.80
2019,04,01,03,59,2.80
2019,04,01,04,00,2.80
2019,04,01,04,01,2.80
2019,04,01,04,02,2.80
2019,04,01,04,03,2.80
2019,04,01,04,04,2.80
2019,04,01,04,05,2.80
2019,04,01,04,06,2.80
2019,04,01,04,07,2.80
2019,04,01,04,08,2.80
2019,04,01,04,09,2.80
2019,04,01,04,10,2.70
2019,04,01,04,11,2.70
2019,04,01,04,12,2.60
2019,04,01,04,13,2.60
2019,04,01,04,14,2.60
2019,04,01,04,15,2.60
2019,04,01,04,16,2.60
2019,04,01,04,17,2.60
2019,04,01,04,18,2.60
2019,04,01,04,19,2.60
2019,04,01,04,20,2.60
2019,04,01,04,21,2.50
2019,04,01,04,22,2.50
2019,04,01,04,23,2.50
2019,04,01,04,24,2.50
2019,04,01,04,25,2.40
2019,04,01,04,26,2.40
2019,04,01,04,27,2.40
2019,04,01,04,28,2.40
2019,04,01,04,29,2.40
2019,04,01,04,30,2.40
2019,04,01,04,31,2.40
2019,04,01,04,32,2.30
2019,04,01,04,33,2.30
2019,04,01,04,34,2.30
2019,04,01,04,35,2.30
2019,04,01,04,36,2.40
2019,04,01,04,37,2.40
2019,04,01,04,38,2.40
2019,04,01,04,39,2.40
2019,04,01,04,40,2.40
2019,04,01,04,41,2.40
2019,04,01,04,42,2.40
2019,04,01,04,43,2.40
2019,04,01,04,44,2.40
2019,04,01,04,45,2.40
2019,04,01,04,46,2.40
2019,04,01,04,47,2.40
2019,04,01,04,48,2.30
2019,04,01,04,49,2.30
2019,04,01,04,50,2.30
2019,04,01,04,51,2.30
2019,04,01,04,52,2.20
2019,04,01,04,53,2.20
2019,04,01,04,54,2.20
2019,04,01,04,55,2.20
2019,04,01,04,56,2.20
2019,04,01,04,57,2.20
2019,04,01,04,58,2.20
2019,04,01,04,59,2.20
2019,04,01,05,00,2.20
2019,04,01,05,01,2.20
2019,04,01,05,02,2.10
2019,04,01,05,03,2.10
2019,04,01,05,04,2.10
2019,04,01,05,05,2.10
2019,04,01,05,06,2.10
2019,04,01,05,07,2.10
2019,04,01,05,08,2.10
2019,04,01,05,09,2.10
2019,04,01,05,10,2.10
2019,04,01,05,11,2.00
2019,04,01,05,12,2.00
2019,04,01,05,13,2.00
2019,04,01,05,14,2.00
2019,04,01,05,15,2.00
2019,04,01,05,16,1.90
2019,04,01,05,17,1.90
2019,04,01,05,18,1.90
2019,04,01,05,19,1.90
2019,04,01,05,20,1.90
2019,04,01,05,21,2.00
2019,04,01,05,22,2.00
2019,04,01,05,23,2.00
2019,04,01,05,24,2.00
2019,04,01,05,25,2.10
2019,04,01,05,26,2.10
2019,04,01,05,27,2.10
2019,04,01,05,28,2.10
2019,04,01,05,29,2.10
2019,04,01,05,30,2.10
2019,04,01,05,31,2.10
2019,04,01,05,32,2.10
2019,04,01,05,33,2.10
2019,04,01,05,34,2.20
2019,04,01,05,35,2.20
2019,04,01,05,36,2.20
2019,04,01,05,37,2.20
2019,04,01,05,38,2.20
2019,04,01,05,39,2.20
2019,04,01,05,40,2.20
2019,04,01,05,41,2.10
2019,04,01,05,42,2.10
2019,04,01,05,43,2.10
2019,04,01,05,44,2.10
2019,04,01,05,45,2.10
2019,04,01,05,46,2.10
2019,04,01,05,47,2.10
2019,04,01,05,48,2.10
2019,04,01,05,49,2.10
2019,04,01,05,50,2.10
2019,04,01,05,51,2.10
2019,04,01,05,52,2.20
2019,04,01,05,53,2.20
2019,04,01,05,54,2.20
2019,04,01,05,55,2.30
2019,04,01,05,56,2.30
2019,04,01,05,57,2.30
2019,04,01,05,58,2.30
2019,04,01,05,59,2.30
2019,04,01,06,00,2.30
2019,04,01,06,01,2.30
2019,04,01,06,02,2.30
2019,04,01,06,03,2.30
2019,04,01,06,04,2.30
2019,04,01,06,05,2.30
2019,04,01,06,06,2.30
2019,04,01,06,07,2.30
2019,04,01,06,08,2.30
2019,04,01,06,09,2.30
2019,04,01,06,10,2.30
2019,04,01,06,11,2.30
2019,04,01,06,12,2.30
2019,04,01,06,13,2.30
2019,04,01,06,14,2.30
2019,04,01,06,15,2.30
2019,04,01,06,16,2.30
2019,04,01,06,17,2.30
2019,04,01,06,18,2.30
2019,04,01,06,19,2.30
2019,04,01,06,20,2.30
2019,04,01,06,21,2.30
2019,04,01,06,22,2.30
2019,04,01,06,23,2.30
2019,04,01,06,24,2.30
2019,04,01,06,25,2.30
2019,04,01,06,26,2.30
2019,04,01,06,27,2.30
2019,04,01,06,28,2.30
2019,04,01,06,29,2.30
2019,04,01,06,30,2.30
2019,04,01,06,31,2.30
2019,04,01,06,32,2.30
2019,04,01,06,33,2.30
2019,04,01,06,34,2.40
2019,04,01,06,35,2.40
2019,04,01,06,36,2.40
2019,04,01,06,37,2.40
2019,04,01,06,38,2.50
2019,04,01,06,39,2.50
2019,04,01,06,40,2.50
2019,04,01,06,41,2.50
2019,04,01,06,42,2.50
2019,04,01,06,43,2.50
2019,04,01,06,44,2.50
2019,04,01,06,45,2.50
2019,04,01,06,46,2.50
2019,04,01,06,47,2.50
2019,04,01,06,48,2.50
2019,04,01,06,49,2.50
2019,04,01,06,50,2.50
2019,04,01,06,51,2.50
2019,04,01,06,52,2.40
2019,04,01,06,53,2.40
2019,04,01,06,54,2.50
2019,04,01,06,55,2.50
2019,04,01,06,56,2.50
2019,04,01,06,57,2.60
2019,04,01,06,58,2.60
2019,04,01,06,59,2.70
2019,04,01,07,00,2.70
2019,04,01,07,01,2.70
2019,04,01,07,02,2.80
2019,04,01,07,03,2.80
2019,04,01,07,04,2.70
2019,04,01,07,05,2.70
2019,04,01,07,06,2.70
2019,04,01,07,07,2.70
2019,04,01,07,08,2.70
2019,04,01,07,09,2.70
2019,04,01,07,10,2.70
2019,04,01,07,11,2.70
2019,04,01,07,12,2.70
2019,04,01,07,13,2.70
2019,04,01,07,14,2.60
2019,04,01,07,15,2.70
2019,04,01,07,16,2.70
2019,04,01,07,17,2.70
2019,04,01,07,18,2.60
2019,04,01,07,19,2.60
2019,04,01,07,20,2.60
2019,04,01,07,21,2.60
2019,04,01,07,22,2.60
2019,04,01,07,23,2.70
2019,04,01,07,24,2.70
2019,04,01,07,25,2.70
2019,04,01,07,26,2.70
2019,04,01,07,27,2.70
2019,04,01,07,28,2.70
2019,04,01,07,29,2.70
2019,04,01,07,30,2.70
2019,04,01,07,31,2.70
2019,04,01,07,32,2.80
2019,04,01,07,33,2.80
2019,04,01,07,34,2.80
2019,04,01,07,35,2.80
2019,04,01,07,36,2.80
2019,04,01,07,37,2.80
2019,04,01,07,38,2.80
2019,04,01,07,39,2.80
2019,04,01,07,40,2.80
2019,04,01,07,41,2.90
2019,04,01,07,42,2.90
2019,04,01,07,43,2.90
2019,04,01,07,44,2.90
2019,04,01,07,45,3.00
2019,04,01,07,46,3.00
2019,04,01,07,47,3.00
2019,04,01,07,48,3.10
2019,04,01,07,49,3.10
2019,04,01,07,50,3.10
2019,04,01,07,51,3.20
2019,04,01,07,52,3.20
2019,04,01,07,53,3.20
2019,04,01,07,54,3.20
2019,04,01,07,55,3.30
2019,04,01,07,56,3.30
2019,04,01,07,57,3.40
2019,04,01,07,58,3.50
2019,04,01,07,59,3.50
2019,04,01,08,00,3.60
2019,04,01,08,01,3.70
2019,04,01,08,02,3.80
2019,04,01,08,03,3.90
2019,04,01,08,04,3.90
2019,04,01,08,05,4.10
2019,04,01,08,06,4.10
2019,04,01,08,07,4.30
2019,04,01,08,08,4.50
2019,04,01,08,09,4.70
2019,04,01,08,10,4.90
2019,04,01,08,11,5.20
2019,04,01,08,12,5.40
2019,04,01,08,13,5.50
2019,04,01,08,14,5.70
2019,04,01,08,15,5.80
2019,04,01,08,16,6.00
2019,04,01,08,17,6.10
2019,04,01,08,18,6.20
2019,04,01,08,19,6.40
2019,04,01,08,20,6.50
2019,04,01,08,21,6.50
2019,04,01,08,22,6.60
2019,04,01,08,23,6.60
2019,04,01,08,24,6.70
2019,04,01,08,25,6.70
2019,04,01,08,26,6.70
2019,04,01,08,27,6.80
2019,04,01,08,28,6.80
2019,04,01,08,29,6.80
2019,04,01,08,30,6.80
2019,04,01,08,31,6.80
2019,04,01,08,32,6.80
2019,04,01,08,33,6.70
2019,04,01,08,34,6.70
2019,04,01,08,35,6.70
2019,04,01,08,36,6.60
2019,04,01,08,37,6.60
2019,04,01,08,38,6.60
2019,04,01,08,39,6.60
2019,04,01,08,40,6.70
2019,04,01,08,41,6.70
2019,04,01,08,42,6.80
2019,04,01,08,43,6.80
2019,04,01,08,44,6.90
2019,04,01,08,45,7.00
2019,04,01,08,46,7.10
2019,04,01,08,47,7.20
2019,04,01,08,48,7.30
2019,04,01,08,49,7.40
2019,04,01,08,50,7.50
2019,04,01,08,51,7.60
2019,04,01,08,52,7.70
2019,04,01,08,53,7.80
2019,04,01,08,54,7.90
2019,04,01,08,55,8.00
2019,04,01,08,56,8.10
2019,04,01,08,57,8.20
2019,04,01,08,58,8.30
2019,04,01,08,59,8.40
2019,04,01,09,00,8.50
2019,04,01,09,01,8.60
2019,04,01,09,02,8.70
2019,04,01,09,03,8.80
2019,04,01,09,04,8.90
2019,04,01,09,05,9.00
2019,04,01,09,06,9.10
2019,04,01,09,07,9.20
2019,04,01,09,08,9.30
2019,04,01,09,09,9.30
2019,04,01,09,10,9.40
2019,04,01,09,11,9.50
2019,04,01,09,12,9.60
2019,04,01,09,13,9.60
2019,04,01,09,14,9.70
2019,04,01,09,15,9.80
2019,04,01,09,16,9.80
2019,04,01,09,17,9.90
2019,04,01,09,18,9.90
2019,04,01,09,19,9.90
2019,04,01,09,20,10.00
2019,04,01,09,21,10.10
2019,04,01,09,22,10.10
2019,04,01,09,23,10.10
2019,04,01,09,24,10.10
2019,04,01,09,25,10.20
2019,04,01,09,26,10.20
2019,04,01,09,27,10.30
2019,04,01,09,28,10.30
2019,04,01,09,29,10.30
2019,04,01,09,30,10.40
2019,04,01,09,31,10.40
2019,04,01,09,32,10.40
2019,04,01,09,33,10.50
2019,04,01,09,34,10.50
2019,04,01,09,35,10.60
2019,04,01,09,36,10.60
2019,04,01,09,37,10.70
2019,04,01,09,38,10.70
2019,04,01,09,39,10.80
2019,04,01,09,40,10.80
2019,04,01,09,41,10.80
2019,04,01,09,42,10.90
2019,04,01,09,43,10.90
2019,04,01,09,44,11.00
2019,04,01,09,45,11.10
2019,04,01,09,46,11.10
2019,04,01,09,47,11.10
2019,04,01,09,48,11.10
2019,04,01,09,49,11.10
2019,04,01,09,50,11.10
2019,04,01,09,51,11.10
2019,04,01,09,52,11.20
2019,04,01,09,53,11.20
2019,04,01,09,54,11.20
2019,04,01,09,55,11.30
2019,04,01,09,56,11.30
2019,04,01,09,57,11.30
2019,04,01,09,58,11.40
2019,04,01,09,59,11.40
2019,04,01,10,00,11.40
2019,04,01,10,01,11.40
2019,04,01,10,02,11.50
2019,04,01,10,03,11.50
2019,04,01,10,04,11.50
2019,04,01,10,05,11.60
2019,04,01,10,06,11.60
2019,04,01,10,07,11.60
2019,04,01,10,08,11.70
2019,04,01,10,09,11.70
2019,04,01,10,10,11.80
2019,04,01,10,11,11.80
2019,04,01,10,12,11.80
2019,04,01,10,13,11.80
2019,04,01,10,14,11.80
2019,04,01,10,15,11.80
2019,04,01,10,16,11.70
2019,04,01,10,17,11.70
2019,04,01,10,18,11.70
2019,04,01,10,19,11.70
2019,04,01,10,20,11.70
2019,04,01,10,21,11.80
2019,04,01,10,22,11.80
2019,04,01,10,23,11.80
2019,04,01,10,24,11.90
2019,04,01,10,25,11.90
2019,04,01,10,26,12.00
2019,04,01,10,27,12.00
2019,04,01,10,28,12.10
2019,04,01,10,29,12.10
2019,04,01,10,30,12.20
2019,04,01,10,31,12.20
2019,04,01,10,32,12.30
2019,04,01,10,33,12.40
2019,04,01,10,34,12.50
2019,04,01,10,35,12.50
2019,04,01,10,36,12.60
2019,04,01,10,37,12.70
2019,04,01,10,38,12.70
2019,04,01,10,39,12.80
2019,04,01,10,40,12.80
2019,04,01,10,41,12.90
2019,04,01,10,42,12.90
2019,04,01,10,43,13.00
2019,04,01,10,44,13.10
2019,04,01,10,45,13.10
2019,04,01,10,46,13.20
2019,04,01,10,47,13.30
2019,04,01,10,48,13.40
2019,04,01,10,49,13.50
2019,04,01,10,50,13.50
2019,04,01,10,51,13.60
2019,04,01,10,52,13.60
2019,04,01,10,53,13.60
2019,04,01,10,54,13.70
2019,04,01,10,55,13.70
2019,04,01,10,56,13.80
2019,04,01,10,57,13.90
2019,04,01,10,58,14.00
2019,04,01,10,59,14.20
2019,04,01,11,00,14.30
2019,04,01,11,01,14.30
2019,04,01,11,02,14.40
2019,04,01,11,03,14.40
2019,04,01,11,04,14.40
2019,04,01,11,05,14.40
2019,04,01,11,06,14.50
2019,04,01,11,07,14.60
2019,04,01,11,08,14.60
2019,04,01,11,09,14.70
2019,04,01,11,10,14.70
2019,04,01,11,11,14.70
2019,04,01,11,12,14.80
2019,04,01,11,13,14.80
2019,04,01,11,14,14.80
2019,04,01,11,15,14.90
2019,04,01,11,16,14.90
2019,04,01,11,17,15.00
2019,04,01,11,18,15.10
2019,04,01,11,19,15.10
2019,04,01,11,20,15.20
2019,04,01,11,21,15.20
2019,04,01,11,22,15.20
2019,04,01,11,23,15.20
2019,04,01,11,24,15.30
2019,04,01,11,25,15.30
2019,04,01,11,26,15.30
2019,04,01,11,27,15.30
2019,04,01,11,28,15.30
2019,04,01,11,29,15.30
2019,04,01,11,30,15.30
2019,04,01,11,31,15.40
2019,04,01,11,32,15.50
2019,04,01,11,33,15.50
2019,04,01,11,34,15.60
2019,04,01,11,35,15.60
2019,04,01,11,36,15.70
2019,04,01,11,37,15.70
2019,04,01,11,38,15.70
2019,04,01,11,39,15.70
2019,04,01,11,40,15.70
2019,04,01,11,41,15.70
2019,04,01,11,42,15.80
2019,04,01,11,43,15.80
2019,04,01,11,44,15.80
2019,04,01,11,45,15.90
2019,04,01,11,46,15.90
2019,04,01,11,47,15.80
2019,04,01,11,48,15.90
2019,04,01,11,49,15.90
2019,04,01,11,50,15.90
2019,04,01,11,51,15.80
2019,04,01,11,52,15.80
2019,04,01,11,53,15.80
2019,04,01,11,54,15.80
2019,04,01,11,55,15.80
2019,04,01,11,56,15.80
2019,04,01,11,57,15.90
2019,04,01,11,58,15.90
2019,04,01,11,59,15.90
2019,04,01,12,00,16.00
2019,04,01,12,01,16.10
2019,04,01,12,02,16.10
2019,04,01,12,03,16.10
2019,04,01,12,04,16.10
2019,04,01,12,05,16.10
2019,04,01,12,06,16.10
2019,04,01,12,07,16.10
2019,04,01,12,08,16.20
2019,04,01,12,09,16.20
2019,04,01,12,10,16.20
2019,04,01,12,11,16.20
2019,04,01,12,12,16.30
2019,04,01,12,13,16.30
2019,04,01,12,14,16.20
2019,04,01,12,15,16.20
2019,04,01,12,16,16.20
2019,04,01,12,17,16.20
2019,04,01,12,18,16.20
2019,04,01,12,19,16.20
2019,04,01,12,20,16.20
2019,04,01,12,21,16.20
2019,04,01,12,22,16.20
2019,04,01,12,23,16.20
2019,04,01,12,24,16.20
2019,04,01,12,25,16.20
2019,04,01,12,26,16.30
2019,04,01,12,27,16.40
2019,04,01,12,28,16.50
2019,04,01,12,29,16.50
2019,04,01,12,30,16.60
2019,04,01,12,31,16.60
2019,04,01,12,32,16.70
2019,04,01,12,33,16.70
2019,04,01,12,34,16.70
2019,04,01,12,35,16.70
2019,04,01,12,36,16.70
2019,04,01,12,37,16.70
2019,04,01,12,38,16.70
2019,04,01,12,39,16.70
2019,04,01,12,40,16.60
2019,04,01,12,41,16.60
2019,04,01,12,42,16.60
2019,04,01,12,43,16.60
2019,04,01,12,44,16.60
2019,04,01,12,45,16.60
2019,04,01,12,46,16.60
2019,04,01,12,47,16.60
2019,04,01,12,48,16.70
2019,04,01,12,49,16.70
2019,04,01,12,50,16.80
2019,04,01,12,51,16.90
2019,04,01,12,52,16.90
2019,04,01,12,53,17.00
2019,04,01,12,54,17.00
2019,04,01,12,55,16.90
2019,04,01,12,56,16.90
2019,04,01,12,57,16.90
2019,04,01,12,58,16.90
2019,04,01,12,59,16.80
2019,04,01,13,00,16.90
2019,04,01,13,01,17.00
2019,04,01,13,02,17.10
2019,04,01,13,03,17.20
2019,04,01,13,04,17.20
2019,04,01,13,05,17.30
2019,04,01,13,06,17.30
2019,04,01,13,07,17.30
2019,04,01,13,08,17.30
2019,04,01,13,09,17.30
2019,04,01,13,10,17.30
2019,04,01,13,11,17.40
2019,04,01,13,12,17.40
2019,04,01,13,13,17.50
2019,04,01,13,14,17.50
2019,04,01,13,15,17.50
2019,04,01,13,16,17.50
2019,04,01,13,17,17.50
2019,04,01,13,18,17.50
2019,04,01,13,19,17.50
2019,04,01,13,20,17.60
2019,04,01,13,21,17.60
2019,04,01,13,22,17.70
2019,04,01,13,23,17.70
2019,04,01,13,24,17.70
2019,04,01,13,25,17.70
2019,04,01,13,26,17.70
2019,04,01,13,27,17.60
2019,04,01,13,28,17.60
2019,04,01,13,29,17.50
2019,04,01,13,30,17.50
2019,04,01,13,31,17.40
2019,04,01,13,32,17.40
2019,04,01,13,33,17.40
2019,04,01,13,34,17.40
2019,04,01,13,35,17.50
2019,04,01,13,36,17.50
2019,04,01,13,37,17.60
2019,04,01,13,38,17.60
2019,04,01,13,39,17.60
2019,04,01,13,40,17.60
2019,04,01,13,41,17.60
2019,04,01,13,42,17.60
2019,04,01,13,43,17.60
2019,04,01,13,44,17.70
2019,04,01,13,45,17.60
2019,04,01,13,46,17.60
2019,04,01,13,47,17.50
2019,04,01,13,48,17.40
2019,04,01,13,49,17.30
2019,04,01,13,50,17.30
2019,04,01,13,51,17.30
2019,04,01,13,52,17.30
2019,04,01,13,53,17.30
2019,04,01,13,54,17.30
2019,04,01,13,55,17.30
2019,04,01,13,56,17.30
2019,04,01,13,57,17.30
2019,04,01,13,58,17.30
2019,04,01,13,59,17.40
2019,04,01,14,00,17.40
2019,04,01,14,01,17.50
2019,04,01,14,02,17.60
2019,04,01,14,03,17.60
2019,04,01,14,04,17.70
2019,04,01,14,05,17.80
2019,04,01,14,06,17.80
2019,04,01,14,07,17.90
2019,04,01,14,08,17.90
2019,04,01,14,09,18.00
2019,04,01,14,10,18.10
2019,04,01,14,11,18.10
2019,04,01,14,12,18.20
2019,04,01,14,13,18.20
2019,04,01,14,14,18.20
2019,04,01,14,15,18.20
2019,04,01,14,16,18.20
2019,04,01,14,17,18.20
2019,04,01,14,18,18.20
2019,04,01,14,19,18.20
2019,04,01,14,20,18.20
2019,04,01,14,21,18.20
2019,04,01,14,22,18.20
2019,04,01,14,23,18.20
2019,04,01,14,24,18.20
2019,04,01,14,25,18.10
2019,04,01,14,26,18.10
2019,04,01,14,27,18.10
2019,04,01,14,28,18.10
2019,04,01,14,29,18.20
2019,04,01,14,30,18.20
2019,04,01,14,31,18.30
2019,04,01,14,32,18.30
2019,04,01,14,33,18.30
2019,04,01,14,34,18.40
2019,04,01,14,35,18.40
2019,04,01,14,36,18.40
2019,04,01,14,37,18.30
2019,04,01,14,38,18.30
2019,04,01,14,39,18.30
2019,04,01,14,40,18.30
2019,04,01,14,41,18.30
2019,04,01,14,42,18.30
2019,04,01,14,43,18.30
2019,04,01,14,44,18.40
2019,04,01,14,45,18.40
2019,04,01,14,46,18.40
2019,04,01,14,47,18.40
2019,04,01,14,48,18.50
2019,04,01,14,49,18.50
2019,04,01,14,50,18.60
2019,04,01,14,51,18.60
2019,04,01,14,52,18.60
2019,04,01,14,53,18.60
2019,04,01,14,54,18.50
2019,04,01,14,55,18.50
2019,04,01,14,56,18.40
2019,04,01,14,57,18.40
2019,04,01,14,58,18.40
2019,04,01,14,59,18.40
2019,04,01,15,00,18.40
2019,04,01,15,01,18.40
2019,04,01,15,02,18.30
2019,04,01,15,03,18.20
2019,04,01,15,04,18.20
2019,04,01,15,05,18.20
2019,04,01,15,06,18.20
2019,04,01,15,07,18.30
2019,04,01,15,08,18.40
2019,04,01,15,09,18.40
2019,04,01,15,10,18.50
2019,04,01,15,11,18.50
2019,04,01,15,12,18.60
2019,04,01,15,13,18.60
2019,04,01,15,14,18.70
2019,04,01,15,15,18.70
2019,04,01,15,16,18.60
2019,04,01,15,17,18.60
2019,04,01,15,18,18.60
2019,04,01,15,19,18.60
2019,04,01,15,20,18.60
2019,04,01,15,21,18.60
2019,04,01,15,22,18.60
2019,04,01,15,23,18.70
2019,04,01,15,24,18.70
2019,04,01,15,25,18.80
2019,04,01,15,26,18.80
2019,04,01,15,27,18.80
2019,04,01,15,28,18.80
2019,04,01,15,29,18.70
2019,04,01,15,30,18.70
2019,04,01,15,31,18.70
2019,04,01,15,32,18.60
2019,04,01,15,33,18.60
2019,04,01,15,34,18.50
2019,04,01,15,35,18.50
2019,04,01,15,36,18.50
2019,04,01,15,37,18.50
2019,04,01,15,38,18.50
2019,04,01,15,39,18.50
2019,04,01,15,40,18.60
2019,04,01,15,41,18.60
2019,04,01,15,42,18.60
2019,04,01,15,43,18.60
2019,04,01,15,44,18.50
2019,04,01,15,45,18.50
2019,04,01,15,46,18.40
2019,04,01,15,47,18.40
2019,04,01,15,48,18.30
2019,04,01,15,49,18.20
2019,04,01,15,50,18.10
2019,04,01,15,51,18.00
2019,04,01,15,52,17.90
2019,04,01,15,53,17.80
2019,04,01,15,54,17.70
2019,04,01,15,55,17.60
2019,04,01,15,56,17.50
2019,04,01,15,57,17.40
2019,04,01,15,58,17.40
2019,04,01,15,59,17.30
2019,04,01,16,00,17.10
2019,04,01,16,01,17.00
2019,04,01,16,02,16.90
2019,04,01,16,03,16.90
2019,04,01,16,04,16.80
2019,04,01,16,05,16.70
2019,04,01,16,06,16.60
2019,04,01,16,07,16.50
2019,04,01,16,08,16.50
2019,04,01,16,09,16.40
2019,04,01,16,10,16.40
2019,04,01,16,11,16.30
2019,04,01,16,12,16.20
2019,04,01,16,13,16.10
2019,04,01,16,14,15.90
2019,04,01,16,15,15.80
2019,04,01,16,16,15.80
2019,04,01,16,17,15.70
2019,04,01,16,18,15.70
2019,04,01,16,19,15.60
2019,04,01,16,20,15.50
2019,04,01,16,21,15.50
2019,04,01,16,22,15.40
2019,04,01,16,23,15.40
2019,04,01,16,24,15.40
2019,04,01,16,25,15.30
2019,04,01,16,26,15.30
2019,04,01,16,27,15.30
2019,04,01,16,28,15.30
2019,04,01,16,29,15.20
2019,04,01,16,30,15.10
2019,04,01,16,31,15.10
2019,04,01,16,32,15.00
2019,04,01,16,33,15.00
2019,04,01,16,34,14.90
2019,04,01,16,35,14.80
2019,04,01,16,36,14.80
2019,04,01,16,37,14.80
2019,04,01,16,38,14.70
2019,04,01,16,39,14.70
2019,04,01,16,40,14.70
2019,04,01,16,41,14.70
2019,04,01,16,42,14.60
2019,04,01,16,43,14.60
2019,04,01,16,44,14.50
2019,04,01,16,45,14.50
2019,04,01,16,46,14.50
2019,04,01,16,47,14.40
2019,04,01,16,48,14.40
2019,04,01,16,49,14.40
2019,04,01,16,50,14.30
2019,04,01,16,51,14.20
2019,04,01,16,52,14.20
2019,04,01,16,53,14.20
2019,04,01,16,54,14.10
2019,04,01,16,55,14.00
2019,04,01,16,56,14.00
2019,04,01,16,57,14.00
2019,04,01,16,58,14.00
2019,04,01,16,59,13.90
2019,04,01,17,00,14.00
2019,04,01,17,01,14.00
2019,04,01,17,02,13.90
2019,04,01,17,03,13.90
2019,04,01,17,04,13.90
2019,04,01,17,05,13.90
2019,04,01,17,06,13.80
2019,04,01,17,07,13.80
2019,04,01,17,08,13.80
2019,04,01,17,09,13.80
2019,04,01,17,10,13.80
2019,04,01,17,11,13.70
2019,04,01,17,12,13.70
2019,04,01,17,13,13.70
2019,04,01,17,14,13.70
2019,04,01,17,15,13.60
2019,04,01,17,16,13.60
2019,04,01,17,17,13.60
2019,04,01,17,18,13.50
2019,04,01,17,19,13.50
2019,04,01,17,20,13.50
2019,04,01,17,21,13.50
2019,04,01,17,22,13.50
2019,04,01,17,23,13.40
2019,04,01,17,24,13.40
2019,04,01,17,25,13.40
2019,04,01,17,26,13.40
2019,04,01,17,27,13.40
2019,04,01,17,28,13.40
2019,04,01,17,29,13.40
2019,04,01,17,30,13.40
2019,04,01,17,31,13.40
2019,04,01,17,32,13.30
2019,04,01,17,33,13.30
2019,04,01,17,34,13.30
2019,04,01,17,35,13.30
2019,04,01,17,36,13.30
2019,04,01,17,37,13.30
2019,04,01,17,38,13.20
2019,04,01,17,39,13.20
2019,04,01,17,40,13.20
2019,04,01,17,41,13.20
2019,04,01,17,42,13.20
2019,04,01,17,43,13.10